Weather History for Savannah, GA

Change the Weather History Date:

Wednesday, February 12, 2014

  Actual Average Record
Temperature  
Mean Temperature 36 °F 52 °F  
Max Temperature 38 °F 64 °F 83 °F (1965)
Min Temperature 34 °F 41 °F 19 °F (1973)
Degree Days  
Heating Degree Days 29 13  
Month to date heating degree days 140 163  
Since 1 July heating degree days 1239 1337  
Cooling Degree Days 0 0  
Month to date cooling degree days 6 0  
Year to date cooling degree days 9 3  
Moisture  
Dew Point 32 °F    
Average Humidity 89    
Maximum Humidity 92    
Minimum Humidity 85    
Precipitation  
Precipitation 0.38 in 0.09 in 2.42 in (2013)
Month to date precipitation 0.82 1.21  
Year to date precipitation 3.23 4.90  
Sea Level Pressure  
Sea Level Pressure 30.03 in    
Wind  
Wind Speed 10 mph (NNE)    
Max Wind Speed 23 mph    
Max Gust Speed 26 mph    
Visibility 7 miles    
Events Rain    
T = Trace of Precipitation, MM = Missing Value Source: NWS Daily Summary

Daily Weather History Graph

Daily Weather History Graph

Search for Another Location

Airport:

Trip Planner

Search our weather history database for the weather conditions in past years. The results will help you decide how hot, cold, wet, or windy it might be!

Date:

Astronomy

Feb. 12, 2014 Rise Set
Actual Time 7:09 AM EST 6:08 PM EST
Civil Twilight 6:44 AM EST 6:33 PM EST
Nautical Twilight 6:16 AM EST 7:02 PM EST
Astronomical Twilight 5:47 AM EST 7:31 PM EST
Moon 4:23 PM EST (2/12) 5:22 AM EST (2/12)
Length of Visible Light 11h 48m
Length of Day
10h 58m
Waxing Gibbous, 95% of the Moon is Illuminated
Feb 12
Waxing Gibbous
Feb 14
Full
Feb 22
Last Quarter
Mar 1
New
Mar 8
First Quarter

Hourly Weather History & Observations

Time (EST) Temp. Windchill Dew Point Humidity Pressure Visibility Wind Dir Wind Speed Gust Speed Precip Events Conditions
12:53 AM 37.9 °F 30.5 °F 33.1 °F 83% 30.23 in 10.0 mi NE 11.5 mph 19.6 mph N/A   Overcast
1:53 AM 37.0 °F 30.4 °F 33.1 °F 86% 30.21 in 10.0 mi NNE 9.2 mph 19.6 mph N/A   Overcast
2:53 AM 37.0 °F 28.9 °F 33.1 °F 86% 30.18 in 10.0 mi NE 12.7 mph - N/A   Overcast
3:53 AM 37.0 °F 29.8 °F 33.1 °F 86% 30.20 in 10.0 mi NE 10.4 mph 21.9 mph N/A   Overcast
4:53 AM 36.0 °F 28.5 °F 33.1 °F 89% 30.18 in 7.0 mi NNE 10.4 mph 23.0 mph 0.03 in   Overcast
5:53 AM 35.1 °F 26.9 °F 32.0 °F 89% 30.19 in 7.0 mi NNE 11.5 mph 19.6 mph 0.03 in Rain Light Rain
6:53 AM 34.0 °F 25.0 °F 30.9 °F 89% 30.16 in 6.0 mi NE 12.7 mph 21.9 mph 0.08 in Rain Light Rain
7:41 AM 33.8 °F 27.0 °F 30.2 °F 87% 30.16 in 2.5 mi NNE 8.1 mph - 0.04 in Rain Light Rain
7:53 AM 34.0 °F 26.6 °F 30.9 °F 89% 30.17 in 2.0 mi NNE 9.2 mph - 0.06 in Rain Rain
8:14 AM 33.8 °F 25.8 °F 30.2 °F 87% 30.17 in 4.0 mi NE 10.4 mph - 0.01 in Rain Light Rain
8:53 AM 35.1 °F 27.9 °F 32.0 °F 89% 30.14 in 7.0 mi NE 9.2 mph - 0.01 in Rain Light Rain
9:53 AM 35.1 °F 26.9 °F 32.0 °F 89% 30.13 in 10.0 mi NE 11.5 mph 21.9 mph 0.00 in   Overcast
10:53 AM 36.0 °F 29.0 °F 32.0 °F 86% 30.19 in 7.0 mi NNW 9.2 mph - 0.00 in Rain Light Rain
11:53 AM 35.1 °F 25.9 °F 32.0 °F 89% 30.09 in 8.0 mi NE 13.8 mph - 0.03 in Rain Light Rain
12:53 PM 36.0 °F 28.5 °F 33.1 °F 89% 30.08 in 7.0 mi NNW 10.4 mph - 0.04 in Rain Light Rain
1:53 PM 36.0 °F 27.5 °F 33.1 °F 89% 30.01 in 10.0 mi North 12.7 mph - 0.00 in   Overcast
2:49 PM 35.6 °F 27.5 °F 32.0 °F 87% 29.96 in 1.5 mi NNE 11.5 mph - 0.02 in Rain Rain
2:53 PM 35.1 °F 27.4 °F 32.0 °F 89% 29.96 in 1.5 mi NE 10.4 mph - 0.04 in Rain Rain
3:08 PM 35.6 °F 27.1 °F 32.0 °F 87% 29.94 in 6.0 mi NE 12.7 mph - 0.02 in Rain Light Rain
3:53 PM 36.0 °F 30.3 °F 33.1 °F 89% 29.93 in 10.0 mi East 6.9 mph - 0.04 in Rain Light Rain
4:53 PM 36.0 °F 29.0 °F 33.1 °F 89% 29.93 in 10.0 mi NNE 9.2 mph - 0.00 in   Overcast
5:53 PM 36.0 °F 28.5 °F 33.1 °F 89% 29.88 in 10.0 mi NE 10.4 mph - 0.01 in   Overcast
6:34 PM 35.6 °F 27.5 °F 33.8 °F 93% 29.85 in 10.0 mi ENE 11.5 mph 16.1 mph 0.00 in Rain Light Rain
6:53 PM 36.0 °F 29.0 °F 33.1 °F 89% 29.86 in 10.0 mi NE 9.2 mph - 0.00 in   Overcast
7:53 PM 36.0 °F 29.0 °F 33.1 °F 89% 29.83 in 10.0 mi NE 9.2 mph - N/A   Overcast
8:53 PM 36.0 °F 27.5 °F 33.1 °F 89% 29.81 in 10.0 mi North 12.7 mph - 0.00 in Rain Light Rain
9:53 PM 36.0 °F 32.1 °F 33.1 °F 89% 29.78 in 8.0 mi North 4.6 mph - 0.00 in   Overcast
10:53 PM 36.0 °F 29.6 °F 33.1 °F 89% 29.76 in 2.0 mi NNE 8.1 mph - N/A   Overcast
11:53 PM 36.0 °F 29.0 °F 33.1 °F 89% 29.75 in 2.0 mi NNE 9.2 mph - N/A   Overcast